Flag for U.S.A. Weather past 2 weeks in Youngstown, Ohio, U.S.A.

Now
51 °F

Fog.


Feels Like: 51 °F
Forecast: 50 / 76 °F
Wind: No wind

Location: Youngstown-Warren Regional Airport

Current Time: Oct 2, 2014 at 12:48:54 AM

Latest Report: Oct 1, 2014 at 11:51 PM


Visibility: 3 mi

Pressure: 30.06 "Hg

Humidity: 100%

Dew point: 51 °F

Location of YoungstownLocation

Historic Weather in Youngstown — Graph

°F

Youngstown temperature yesterday

Maximum temperature yesterday: 67 °F (at 3:51 PM)
Minimum temperature yesterday: 52 °F (at 10:51 PM)
Average temperature yesterday: 58 °F

Past Weeks' High & Low Weather Summary

 TemperatureHumidityPressure
High78 °F (Sep 21, 12:51 PM)100% (Sep 17, 2:51 AM)30.46 "Hg (Sep 17, 2:51 AM)
Low36 °F (Sep 23, 6:51 AM)40% (Sep 21, 3:51 PM)29.64 "Hg (Sep 21, 3:51 PM)
Average59 °F79%30.13 "Hg
* Reported Sep 16 10:51 PM — Oct 1 10:51 PM, Youngstown, Weather by CustomWeather, © 2014

Note: Actual official high and low records may vary slightly from our data, if they occured in-between our weather recording intervals... More about our weather records

Advertising

Youngstown weather history for previous 24 hours

 ConditionsComfort  
Time TempWeatherWind HumidityBarometerVisibility
10:51 PM
Oct 1
52 °FFog.3 mph97%30.06 "Hg3 mi
9:51 PM54 °FFog.No wind93%30.05 "Hg6 mi
8:51 PM56 °FFog.No wind97%30.04 "Hg6 mi
7:51 PM57 °FFog.No wind96%30.03 "Hg6 mi
6:51 PM61 °FPassing clouds.No wind87%30.02 "Hg8 mi
5:51 PM66 °FScattered clouds.6 mph73%30.02 "Hg10 mi
4:51 PM67 °FScattered clouds.3 mph68%30.01 "Hg10 mi
3:51 PM67 °FScattered clouds.7 mph71%30.02 "Hg10 mi
2:51 PM64 °FPartly sunny.3 mph78%30.03 "Hg10 mi
1:51 PM62 °FPartly sunny.No wind80%30.04 "Hg10 mi
12:51 PM60 °FFog.3 mph86%30.05 "Hg6 mi
11:51 AM59 °FFog.No wind90%30.06 "Hg3 mi
10:51 AM57 °FFog.3 mph96%30.06 "Hg1 mi
9:51 AM56 °FFog.6 mph100%30.04 "Hg0 mi
8:51 AM55 °FFog.5 mph100%30.02 "Hg0 mi
7:51 AM55 °FFog.No wind100%30.02 "Hg0 mi
6:51 AM54 °FFog.No wind100%30.00 "Hg0 mi
5:51 AM54 °FFog.3 mph100%29.99 "Hg0 mi
4:51 AM54 °FFog.3 mph100%29.98 "Hg0 mi
3:51 AM53 °FFog.3 mph100%29.98 "Hg3 mi
2:51 AM54 °FFog.7 mph100%29.99 "Hg1 mi
1:51 AM54 °FFog.No wind97%29.98 "Hg1 mi
12:51 AM53 °FFog.3 mph96%29.98 "Hg5 mi
Weather by CustomWeather, © 2014

See weather overviewHow to use our weather pages